International Skating Union - Official Site

ISU World Cup Seoul
November 21-23, 2014

Draw | Lap Times | Index | World Cup

Referee: Jan  BOLT  (NED)
Starter: Yong-Seok  OH  (KOR)
StartTime: EndTime: Air Temp: Ice Temp: Humidity:
15:00 15:16 16.0℃ 4.4℃ 38%
Result Mass Start Men
Rankings as of Nov 23 2014 4:21PM
Rank: No.: Name: Nation: Time: Behind: Points:
1 132 Andrea  Giovannini ITA ITA 8:10.78 100
2 163 Haralds  Silovs LAT LAT 8:12.35 1.57 80
3 159 Seung-Hoon  Lee KOR KOR 8:12.56 1.78 70
4 102 Linus  Heidegger AUT AUT 8:20.85 10.07 60
5 103 Bram  Smallenbroek AUT AUT 8:45.19 34.41 50
6 144 Ryosuke  Tsuchiya JPN JPN 8:27.17 16.39 45
7 186 Roland  Cieslak POL POL 8:23.08 12.30 40
8 153 Cheol-Min  Kim KOR KOR 8:14.49 3.71 36
9 184 Sverre  Lunde Pedersen NOR NOR 8:15.33 4.55 32
10 209 Jeffrey  Swider-Peltz USA USA 8:15.50 4.72 28
11 169 Gerben  Jorritsma NED NED 8:15.59 4.81 24
12 145 Shane  Williamson JPN JPN 8:16.64 5.86 21
13 201 Yevgeny  Seryaev RUS RUS 8:16.88 6.10 18
14 108 Tyler  Derraugh CAN CAN 8:17.09 6.31 16
15 124 Alexej  Baumgärtner GER GER 8:21.31 10.53 14
16 116 Bailin  Li CHN CHN 8:27.11 16.33 12
17 183 Håvard Holmefjord  Lorentzen NOR NOR 8:27.12 16.34 10
18 205 Martin  Hänggi SUI SUI 8:27.23 16.45 8
19 135 Nicola  Tumolero ITA ITA 8:27.84 17.06 6
20 200 Danila  Semerikov RUS RUS 8:34.10 23.32 5
21 180 Koen  Verweij NED NED 8:36.37 25.59 4
22 104 Bart  Swings BEL BEL 8:39.46 28.68 3
23 208 Edwin  Park USA USA 8:42.40 31.62 2
24 115 Robert  Watson CAN CAN 8:29.12 18.34 1
25 125 Patrick  Beckert GER GER 8:34.04 23.26 0
26 119 Talabuhan  Rehanbai CHN CHN 8:39.98 29.20 0